FW4704 Weather Reports


time (UTC)temp
C
wind
direction
speed
KPH
gust
KPH
rain 1hr
cm
rain 24hr
cm
rain mn
cm
humidity
%
barometer
mb
20260507123004 15 288 6.4 17.7 0.00 0.00 0.00 79 1015.5
20260507121501 15 297 3.2 11.3 0.00 0.00 0.00 75 1015.3
20260507120103 15 268 8.0 12.9 0.00 0.00 0.00 77 1015.5
20260507114604 14 244 4.8 11.3 0.00 0.00 0.00 77 1015.6
20260507113052 14 288 3.2 6.4 0.00 0.00 0.00 78 1015.5
20260507111549 13 238 3.2 8.0 0.00 0.00 0.00 78 1015.3
20260507110047 13 253 3.2 8.0 0.00 0.00 0.00 78 1015.6
20260507104546 13 145 0.0 3.2 0.00 0.00 0.00 79 1015.6
20260507103045 13 144 3.2 6.4 0.00 0.00 0.00 79 1015.7
20260507101544 13 138 1.6 6.4 0.00 0.00 0.00 81 1015.5
20260507100043 13 134 1.6 8.0 0.00 0.00 0.00 82 1015.5
20260507094549 13 105 1.6 9.7 0.00 0.00 0.00 82 1015.5
20260507093040 13 123 1.6 6.4 0.00 0.00 0.00 83 1015.3
20260507091538 13 80 3.2 11.3 0.00 0.00 0.00 86 1015.3
20260507090034 12 92 3.2 8.0 0.00 0.00 0.00 89 1015.2
20260507084532 12 66 3.2 14.5 0.00 0.00 0.00 90 1015.1
20260507083027 11 73 3.2 8.0 0.00 0.00 0.00 92 1015.0
20260507081531 11 30 3.2 9.7 0.00 0.00 0.00 94 1015.0
20260507080020 10 32 4.8 12.9 0.00 0.00 0.00 95 1014.9
20260507074527 10 24 6.4 12.9 0.00 0.00 0.00 96 1014.8
20260507073015 10 11 9.7 16.1 0.00 0.00 0.00 97 1014.9
20260507071514 10 9 8.0 12.9 0.00 0.00 0.00 98 1014.8
20260507070014 9 9 4.8 9.7 0.00 0.00 0.00 98 1014.7
20260507064512 9 344 6.4 14.5 0.00 0.00 0.00 98 1014.8
20260507063010 9 344 6.4 12.9 0.00 0.00 0.00 99 1014.7
20260507061510 8 355 4.8 12.9 0.00 0.00 0.00 99 1014.5
20260507060008 8 326 6.4 9.7 0.00 0.00 0.00 99 1014.5
20260507054506 8 349 4.8 9.7 0.00 0.00 0.00 100 1014.3
20260507053006 8 350 6.4 8.0 0.00 0.00 0.00 100 1014.3
20260507051504 8 342 4.8 9.7 0.00 0.00 0.00 100 1014.1
20260507050002 7 334 1.6 4.8 0.00 0.00 0.00 99 1013.9
20260507044602 7 336 3.2 6.4 0.00 0.00 0.00 99 1013.7
20260507043101 7 333 0.0 3.2 0.00 0.00 0.00 99 1013.6
20260507041603 7 333 0.0 4.8 0.00 0.00 0.00 99 1013.6
20260507040106 7 331 3.2 8.0 0.00 0.00 0.00 99 1013.5
20260507034618 7 280 0.0 6.4 0.00 0.00 0.00 99 1013.3
20260507033105 7 246 0.0 0.0 0.00 0.00 0.00 99 1013.2
20260507031552 7 246 0.0 0.0 0.00 0.00 0.00 99 1013.1
20260507030052 7 243 0.0 3.2 0.00 0.00 0.00 99 1013.0
20260507024557 7 243 0.0 1.6 0.00 0.00 0.00 99 1013.0
20260507023050 7 243 1.6 3.2 0.00 0.00 0.00 98 1013.0
20260507021557 7 243 1.6 3.2 0.00 0.00 0.00 98 1013.0
20260507020049 7 243 0.0 3.2 0.00 0.00 0.00 98 1012.9
20260507014549 7 243 1.6 4.8 0.00 0.00 0.00 97 1012.8
20260507013103 6 243 1.6 3.2 0.00 0.00 0.00 97 1012.8
20260507011545 7 242 1.6 3.2 0.00 0.00 0.00 96 1012.6
20260507010043 7 242 3.2 4.8 0.00 0.00 0.00 96 1012.6
20260507004540 7 242 1.6 4.8 0.00 0.00 0.00 96 1012.6
20260507003039 7 243 3.2 6.4 0.00 0.00 0.00 96 1012.6
20260507001558 8 256 1.6 4.8 0.00 0.00 0.00 96 1012.6
20260507000033 8 256 0.0 1.6 0.00 0.00 0.00 96 1012.6
20260506234544 8 256 0.0 3.2 0.00 0.00 0.00 96 1012.5
20260506233025 8 256 1.6 6.4 0.00 0.00 0.00 95 1012.2
20260506231523 9 256 3.2 8.0 0.00 0.00 0.00 95 1012.2
20260506230021 9 246 3.2 8.0 0.00 0.00 0.00 95 1012.2
20260506224526 9 248 4.8 8.0 0.00 0.00 0.00 95 1012.3
20260506223018 10 262 3.2 11.3 0.00 0.00 0.00 95 1012.2
20260506221514 10 259 3.2 9.7 0.00 0.00 0.00 95 1012.2
20260506220029 10 241 4.8 9.7 0.00 0.00 0.00 95 1012.2
20260506214512 10 261 4.8 12.9 0.00 0.00 0.00 95 1012.1
20260506213011 10 249 8.0 14.5 0.00 0.00 0.00 95 1012.1
20260506211517 10 267 8.0 14.5 0.00 0.00 0.00 94 1012.0
20260506210009 10 254 9.7 17.7 0.00 0.00 0.00 94 1011.9
20260506204508 10 259 6.4 14.5 0.00 0.00 0.00 94 1011.9
20260506203006 10 281 8.0 14.5 0.00 0.00 0.00 93 1011.8
20260506201506 10 254 8.0 17.7 0.00 0.00 0.00 93 1011.7
20260506200005 10 257 9.7 16.1 0.00 0.00 0.00 93 1011.6
20260506194504 10 246 9.7 16.1 0.00 0.00 0.00 92 1011.5
20260506193003 10 242 11.3 19.3 0.00 0.00 0.00 92 1011.4
20260506191501 11 270 11.3 19.3 0.00 0.00 0.00 91 1011.3
20260506190000 11 252 8.0 19.3 0.00 0.00 0.00 91 1011.1
20260506184600 11 235 9.7 16.1 0.00 0.00 0.00 90 1011.2
20260506183103 11 255 9.7 19.3 0.00 0.00 0.00 89 1011.2
20260506181625 11 248 6.4 22.5 0.00 0.00 0.00 89 1011.0
20260506180055 11 257 6.4 22.5 0.00 0.00 0.00 89 1010.8
20260506174554 12 267 9.7 24.1 0.00 0.00 0.00 89 1010.6
20260506173121 12 261 12.9 24.1 0.00 0.00 0.00 88 1010.5
20260506171556 12 289 11.3 22.5 0.00 0.00 0.00 88 1010.5
20260506170059 12 242 9.7 25.7 0.00 0.00 0.00 89 1010.3
20260506164550 12 265 12.9 25.7 0.00 0.00 0.00 88 1010.3
20260506163050 12 261 8.0 29.0 0.00 0.00 0.00 87 1010.2
20260506161550 12 286 9.7 27.4 0.00 0.00 0.00 88 1010.3
20260506160059 12 244 9.7 24.1 0.00 0.00 0.00 88 1010.3
20260506154550 12 308 12.9 25.7 0.00 0.00 0.00 87 1010.1
20260506153049 13 18 11.3 29.0 0.00 0.00 0.00 86 1010.4
20260506151547 13 275 14.5 30.6 0.00 0.00 0.00 86 1010.3
20260506150049 14 269 16.1 27.4 0.00 0.00 0.00 86 1010.2
20260506144545 13 18 14.5 29.0 0.00 0.00 0.00 86 1010.2
20260506143038 13 294 14.5 33.8 0.00 0.00 0.00 87 1010.1
20260506141532 12 232 14.5 30.6 0.00 0.00 0.00 88 1010.1
20260506140034 12 277 14.5 30.6 0.00 0.00 0.00 88 1010.0
20260506134530 12 257 8.0 25.7 0.00 0.00 0.00 88 1009.9
20260506133031 13 257 11.3 25.7 0.00 0.00 0.00 87 1010.0
20260506131542 13 229 12.9 24.1 0.00 0.00 0.00 88 1009.9
20260506130037 12 263 14.5 29.0 0.00 0.00 0.00 88 1009.8
20260506124522 12 243 16.1 32.2 0.00 0.00 0.00 89 1009.8